• In Uzbekistan
  • List of Countries
  • For 7 days
  • Water Temperature
  • Satellite Maps
  • Weather Map
  • Weather Widgets
  • user-avatar
    Login

    Hourly Weather Perth

    Today, 30 April, Sunday

    Time Temperature Precipitation Wind Pressure Humidity
    00:00 +15°C° 0 mm 2 mps 764 mmHg 54%
    01:00 +14°C° 0 mm 2 mps 764 mmHg 56%
    02:00 +13°C° 0 mm 2 mps 764 mmHg 62%
    03:00 +13°C° 0 mm 2 mps 764 mmHg 66%
    04:00 +12°C° 0 mm 1 mps 764 mmHg 69%
    05:00 +11°C° 0 mm 1 mps 764 mmHg 72%
    06:00 +13°C° 0 mm 2 mps 764 mmHg 68%
    07:00 +15°C° 0 mm 2 mps 764 mmHg 64%
    08:00 +17°C° 0 mm 2 mps 764 mmHg 59%
    09:00 +19°C° 0 mm 2 mps 764 mmHg 56%
    10:00 +22°C° 0 mm 3 mps 764 mmHg 52%
    11:00 +25°C° 0 mm 3 mps 764 mmHg 49%
    12:00 +25°C° 0 mm 3 mps 764 mmHg 48%
    13:00 +26°C° 0 mm 3 mps 764 mmHg 47%
    14:00 +27°C° 0 mm 3 mps 763 mmHg 46%
    15:00 +26°C° 0 mm 3 mps 763 mmHg 50%
    16:00 +25°C° 0 mm 4 mps 764 mmHg 53%
    17:00 +23°C° 0 mm 4 mps 764 mmHg 57%
    18:00 +22°C° 0 mm 4 mps 764 mmHg 65%
    19:00 +20°C° 0 mm 4 mps 765 mmHg 74%
    20:00 +18°C° 0 mm 4 mps 765 mmHg 83%
    21:00 +17°C° 0 mm 4 mps 765 mmHg 84%
    22:00 +15°C° 0 mm 4 mps 766 mmHg 86%
    23:00 +15°C° 0 mm 4 mps 766 mmHg 88%

    Tomorrow, 1 May, Monday

    Time Temperature Precipitation Wind Pressure Humidity
    00:00 +15°C° 0 mm 4 mps 766 mmHg 87%
    01:00 +14°C° 0 mm 4 mps 766 mmHg 87%
    02:00 +14°C° 0 mm 4 mps 766 mmHg 86%
    03:00 +14°C° 0 mm 4 mps 766 mmHg 84%
    04:00 +14°C° 0 mm 4 mps 766 mmHg 81%
    05:00 +13°C° 0 mm 4 mps 767 mmHg 79%
    06:00 +14°C° 0 mm 4 mps 767 mmHg 77%
    07:00 +14°C° 0 mm 5 mps 767 mmHg 74%
    08:00 +14°C° 0 mm 5 mps 767 mmHg 72%
    09:00 +17°C° 0 mm 4 mps 767 mmHg 65%
    10:00 +20°C° 0 mm 4 mps 767 mmHg 58%
    11:00 +22°C° 0 mm 3 mps 767 mmHg 52%
    12:00 +24°C° 0 mm 3 mps 766 mmHg 47%
    13:00 +25°C° 0 mm 3 mps 766 mmHg 43%
    14:00 +27°C° 0 mm 2 mps 765 mmHg 39%
    15:00 +26°C° 0 mm 2 mps 765 mmHg 41%
    16:00 +25°C° 0 mm 3 mps 765 mmHg 43%
    17:00 +24°C° 0 mm 3 mps 765 mmHg 45%
    18:00 +22°C° 0 mm 3 mps 766 mmHg 49%
    19:00 +20°C° 0 mm 3 mps 766 mmHg 53%
    20:00 +18°C° 0 mm 3 mps 766 mmHg 57%
    21:00 +18°C° 0 mm 4 mps 766 mmHg 56%
    22:00 +17°C° 0 mm 4 mps 767 mmHg 56%
    23:00 +17°C° 0 mm 4 mps 767 mmHg 55%

    Day after tomorrow, 2 May, Tuesday

    Time Temperature Precipitation Wind Pressure Humidity
    00:00 +17°C° 0 mm 4 mps 767 mmHg 56%
    01:00 +15°C° 0 mm 4 mps 766 mmHg 56%
    02:00 +15°C° 0 mm 5 mps 766 mmHg 57%
    03:00 +15°C° 0 mm 5 mps 766 mmHg 59%
    04:00 +14°C° 0 mm 4 mps 766 mmHg 60%
    05:00 +14°C° 0 mm 4 mps 766 mmHg 62%
    06:00 +14°C° 0 mm 4 mps 766 mmHg 61%
    07:00 +15°C° 0 mm 4 mps 766 mmHg 60%
    08:00 +15°C° 0 mm 4 mps 767 mmHg 58%
    09:00 +19°C° 0 mm 4 mps 767 mmHg 51%
    10:00 +22°C° 0 mm 3 mps 766 mmHg 45%
    11:00 +25°C° 0 mm 3 mps 766 mmHg 38%
    12:00 +27°C° 0 mm 2 mps 766 mmHg 34%
    13:00 +28°C° 0 mm 2 mps 765 mmHg 30%
    14:00 +29°C° 0 mm 1 mps 764 mmHg 26%
    15:00 +28°C° 0 mm 1 mps 764 mmHg 32%
    16:00 +26°C° 0 mm 1 mps 764 mmHg 37%
    17:00 +25°C° 0 mm 1 mps 764 mmHg 43%
    18:00 +23°C° 0 mm 2 mps 764 mmHg 44%
    19:00 +20°C° 0 mm 2 mps 764 mmHg 46%
    20:00 +19°C° 0 mm 3 mps 765 mmHg 47%
    21:00 +19°C° 0 mm 3 mps 765 mmHg 46%
    22:00 +19°C° 0 mm 3 mps 765 mmHg 45%
    23:00 +19°C° 0 mm 3 mps 765 mmHg 45%

    3 May, Wednesday

    Time Temperature Precipitation Wind Pressure Humidity
    00:00 +19°C° 0 mm 4 mps 764 mmHg 45%
    01:00 +18°C° 0 mm 4 mps 764 mmHg 45%
    02:00 +18°C° 0 mm 4 mps 764 mmHg 45%
    03:00 +18°C° 0 mm 4 mps 763 mmHg 46%
    04:00 +17°C° 0 mm 5 mps 763 mmHg 47%
    05:00 +17°C° 0 mm 5 mps 763 mmHg 48%
    06:00 +17°C° 0 mm 5 mps 763 mmHg 47%
    07:00 +17°C° 0 mm 5 mps 763 mmHg 46%
    08:00 +19°C° 0 mm 5 mps 763 mmHg 46%
    09:00 +21°C° 0 mm 5 mps 763 mmHg 40%
    10:00 +25°C° 0 mm 5 mps 763 mmHg 34%
    11:00 +28°C° 0 mm 5 mps 763 mmHg 29%
    12:00 +29°C° 0 mm 4 mps 763 mmHg 26%
    13:00 +30°C° 0 mm 4 mps 762 mmHg 24%
    14:00 +32°C° 0 mm 4 mps 761 mmHg 21%
    15:00 +30°C° 0 mm 4 mps 761 mmHg 26%
    16:00 +28°C° 0 mm 4 mps 761 mmHg 30%
    17:00 +27°C° 0 mm 4 mps 761 mmHg 34%
    18:00 +24°C° 0 mm 3 mps 761 mmHg 47%
    19:00 +21°C° 0 mm 3 mps 762 mmHg 60%
    20:00 +18°C° 0 mm 2 mps 762 mmHg 72%
    21:00 +18°C° 0 mm 2 mps 762 mmHg 73%
    22:00 +18°C° 0 mm 2 mps 762 mmHg 73%
    23:00 +17°C° 0 mm 2 mps 762 mmHg 74%

    4 May, Thursday

    Time Temperature Precipitation Wind Pressure Humidity
    00:00 +17°C° 0 mm 2 mps 762 mmHg 75%
    01:00 +17°C° 0 mm 2 mps 762 mmHg 76%
    02:00 +17°C° 0 mm 2 mps 761 mmHg 77%
    03:00 +17°C° 0 mm 2 mps 762 mmHg 78%
    04:00 +17°C° 0 mm 2 mps 762 mmHg 80%
    05:00 +17°C° 0 mm 2 mps 762 mmHg 81%
    06:00 +18°C° 0 mm 2 mps 762 mmHg 82%
    07:00 +18°C° 0 mm 2 mps 763 mmHg 83%
    08:00 +19°C° 0 mm 2 mps 763 mmHg 85%
    09:00 +21°C° 0 mm 3 mps 763 mmHg 76%
    10:00 +24°C° 0 mm 3 mps 763 mmHg 67%
    11:00 +25°C° 0 mm 4 mps 763 mmHg 58%
    12:00 +26°C° 0 mm 4 mps 762 mmHg 56%
    13:00 +26°C° 0 mm 4 mps 762 mmHg 54%
    14:00 +26°C° 0 mm 4 mps 762 mmHg 52%
    15:00 +25°C° 0 mm 4 mps 762 mmHg 57%
    16:00 +24°C° 0 mm 3 mps 762 mmHg 63%
    17:00 +21°C° 0 mm 3 mps 762 mmHg 69%
    18:00 +20°C° 0 mm 3 mps 763 mmHg 78%
    19:00 +18°C° 0 mm 2 mps 763 mmHg 86%
    20:00 +17°C° 0 mm 2 mps 764 mmHg 94%
    21:00 +17°C° 0.1 mm 2 mps 764 mmHg 95%
    22:00 +17°C° 0.1 mm 2 mps 764 mmHg 96%
    23:00 +17°C° 0.1 mm 2 mps 764 mmHg 97%

    5 May, Friday

    Time Temperature Precipitation Wind Pressure Humidity
    00:00 +16°C° 0.1 mm 2 mps 764 mmHg 97%
    01:00 +16°C° 0.1 mm 2 mps 764 mmHg 98%
    02:00 +15°C° 0.1 mm 1 mps 764 mmHg 99%
    03:00 +15°C° 0 mm 1 mps 764 mmHg 98%
    04:00 +15°C° 0 mm 1 mps 765 mmHg 98%
    05:00 +15°C° 0 mm 1 mps 765 mmHg 98%
    06:00 +16°C° 0 mm 1 mps 765 mmHg 96%
    07:00 +18°C° 0 mm 1 mps 766 mmHg 94%
    08:00 +18°C° 0 mm 1 mps 766 mmHg 91%
    09:00 +21°C° 0 mm 1 mps 766 mmHg 77%
    10:00 +23°C° 0 mm 1 mps 766 mmHg 62%
    11:00 +26°C° 0 mm 1 mps 767 mmHg 47%
    12:00 +26°C° 0 mm 1 mps 766 mmHg 44%
    13:00 +27°C° 0 mm 2 mps 766 mmHg 40%
    14:00 +27°C° 0 mm 2 mps 765 mmHg 37%
    15:00 +26°C° 0 mm 3 mps 766 mmHg 42%
    16:00 +25°C° 0 mm 3 mps 766 mmHg 47%
    17:00 +24°C° 0 mm 3 mps 766 mmHg 52%
    18:00 +21°C° 0 mm 3 mps 767 mmHg 59%
    19:00 +19°C° 0 mm 3 mps 767 mmHg 67%
    20:00 +18°C° 0 mm 3 mps 767 mmHg 74%
    21:00 +17°C° 0 mm 3 mps 768 mmHg 73%
    22:00 +17°C° 0 mm 3 mps 768 mmHg 73%
    23:00 +17°C° 0 mm 3 mps 768 mmHg 72%
    Show more